Time,TemperatureF,DewpointF,PressureIn,WindDirection,WindDirectionDegrees,WindSpeedMPH,WindSpeedGustMPH,Humidity,HourlyPrecipIn,Conditions,Clouds,dailyrainin,SoftwareType,DateUTC
2014-10-21 00:13:00,54.4,53.0,29.83,SE,128,0.0,0.0,95,0.00,,,0.00,weatherlink.com 1.10,2014-10-21 07:13:00,
2014-10-21 00:28:00,54.4,53.0,29.83,SE,130,0.0,4.0,95,0.00,,,0.00,weatherlink.com 1.10,2014-10-21 07:28:00,
2014-10-21 00:43:00,55.2,53.0,29.84,SSE,161,2.0,11.0,92,0.00,,,0.00,weatherlink.com 1.10,2014-10-21 07:43:00,
2014-10-21 00:58:00,55.6,53.0,29.84,SSW,206,3.0,9.0,90,0.00,,,0.00,weatherlink.com 1.10,2014-10-21 07:58:00,
2014-10-21 01:13:00,55.5,53.0,29.84,SSE,156,6.0,9.0,90,0.00,,,0.00,weatherlink.com 1.10,2014-10-21 08:13:00,
2014-10-21 01:28:00,55.4,53.0,29.84,South,174,4.0,7.0,91,0.00,,,0.00,weatherlink.com 1.10,2014-10-21 08:28:00,
2014-10-21 01:43:00,55.5,53.0,29.85,SW,223,2.0,12.0,90,0.00,,,0.00,weatherlink.com 1.10,2014-10-21 08:43:00,
2014-10-21 01:58:00,55.4,53.0,29.85,South,180,5.0,9.0,90,0.00,,,0.00,weatherlink.com 1.10,2014-10-21 08:58:00,
2014-10-21 02:13:00,55.4,53.0,29.85,South,184,5.0,10.0,90,0.00,,,0.00,weatherlink.com 1.10,2014-10-21 09:13:00,
2014-10-21 02:28:00,55.4,53.0,29.85,SSW,201,0.0,7.0,90,0.00,,,0.00,weatherlink.com 1.10,2014-10-21 09:28:00,
2014-10-21 02:43:00,55.5,53.0,29.86,SSE,154,2.0,7.0,90,0.00,,,0.00,weatherlink.com 1.10,2014-10-21 09:43:00,
2014-10-21 02:58:00,55.4,53.0,29.86,SSE,160,1.0,9.0,90,0.00,,,0.00,weatherlink.com 1.10,2014-10-21 09:58:00,
2014-10-21 03:13:00,55.3,53.0,29.86,SSW,200,1.0,10.0,90,0.00,,,0.00,weatherlink.com 1.10,2014-10-21 10:13:00,
2014-10-21 03:28:00,55.3,53.0,29.86,South,190,4.0,9.0,90,0.00,,,0.00,weatherlink.com 1.10,2014-10-21 10:28:00,
2014-10-21 03:43:00,55.4,52.0,29.86,SSW,213,0.0,8.0,89,0.00,,,0.00,weatherlink.com 1.10,2014-10-21 10:43:00,
2014-10-21 03:58:00,55.3,53.0,29.87,SSE,168,2.0,7.0,90,0.00,,,0.00,weatherlink.com 1.10,2014-10-21 10:58:00,
2014-10-21 04:13:00,55.3,52.0,29.88,South,173,0.0,6.0,89,0.00,,,0.00,weatherlink.com 1.10,2014-10-21 11:13:00,
2014-10-21 04:28:00,55.1,52.0,29.88,South,186,2.0,8.0,90,0.00,,,0.00,weatherlink.com 1.10,2014-10-21 11:28:00,
2014-10-21 04:43:00,54.9,52.0,29.88,South,174,2.0,9.0,91,0.03,,,0.03,weatherlink.com 1.10,2014-10-21 11:43:00,
2014-10-21 04:58:00,54.4,52.0,29.89,SSE,165,6.0,10.0,92,0.05,,,0.05,weatherlink.com 1.10,2014-10-21 11:58:00,
2014-10-21 05:13:00,54.1,52.0,29.89,South,176,3.0,9.0,93,0.05,,,0.05,weatherlink.com 1.10,2014-10-21 12:13:00,
2014-10-21 05:28:00,54.0,52.0,29.89,SSW,201,2.0,10.0,94,0.05,,,0.05,weatherlink.com 1.10,2014-10-21 12:28:00,
2014-10-21 05:43:00,54.0,52.0,29.90,South,190,0.0,8.0,93,0.02,,,0.05,weatherlink.com 1.10,2014-10-21 12:43:00,
2014-10-21 05:58:00,54.0,52.0,29.90,South,184,1.0,7.0,93,0.00,,,0.05,weatherlink.com 1.10,2014-10-21 12:58:00,
2014-10-21 06:13:00,54.0,52.0,29.91,South,175,4.0,7.0,93,0.00,,,0.05,weatherlink.com 1.10,2014-10-21 13:13:00,
2014-10-21 06:28:00,54.0,52.0,29.91,South,190,3.0,6.0,93,0.00,,,0.05,weatherlink.com 1.10,2014-10-21 13:28:00,
2014-10-21 06:43:00,53.9,52.0,29.91,South,187,4.0,6.0,93,0.00,,,0.05,weatherlink.com 1.10,2014-10-21 13:43:00,
2014-10-21 06:58:00,53.8,52.0,29.92,South,190,4.0,9.0,93,0.00,,,0.05,weatherlink.com 1.10,2014-10-21 13:58:00,
2014-10-21 07:13:00,53.7,52.0,29.92,SW,219,6.0,9.0,93,0.00,,,0.05,weatherlink.com 1.10,2014-10-21 14:13:00,
2014-10-21 07:29:00,53.7,52.0,29.92,SSW,192,7.0,10.0,93,0.00,,,0.05,weatherlink.com 1.10,2014-10-21 14:29:00,
2014-10-21 07:44:00,53.7,52.0,29.93,SSW,205,2.0,7.0,93,0.00,,,0.05,weatherlink.com 1.10,2014-10-21 14:44:00,
2014-10-21 07:59:00,53.7,52.0,29.92,SSW,194,7.0,8.0,93,0.00,,,0.05,weatherlink.com 1.10,2014-10-21 14:59:00,
2014-10-21 08:14:00,53.8,52.0,29.93,SSE,163,0.0,5.0,92,0.00,,,0.05,weatherlink.com 1.10,2014-10-21 15:14:00,
2014-10-21 08:29:00,54.0,52.0,29.94,SSE,160,0.0,5.0,92,0.00,,,0.05,weatherlink.com 1.10,2014-10-21 15:29:00,
2014-10-21 08:44:00,54.2,52.0,29.94,SSW,212,7.0,7.0,92,0.00,,,0.05,weatherlink.com 1.10,2014-10-21 15:44:00,
2014-10-21 08:59:00,54.4,52.0,29.94,SSW,196,0.0,6.0,92,0.00,,,0.05,weatherlink.com 1.10,2014-10-21 15:59:00,
2014-10-21 09:14:00,54.7,52.0,29.95,SSE,157,0.0,4.0,91,0.00,,,0.05,weatherlink.com 1.10,2014-10-21 16:14:00,
2014-10-21 09:29:00,55.3,53.0,29.95,SSW,192,0.0,10.0,90,0.00,,,0.05,weatherlink.com 1.10,2014-10-21 16:29:00,
2014-10-21 09:44:00,55.7,53.0,29.95,SSE,166,0.0,9.0,89,0.00,,,0.05,weatherlink.com 1.10,2014-10-21 16:44:00,
2014-10-21 09:59:00,55.5,52.0,29.96,South,175,6.0,8.0,88,0.00,,,0.05,weatherlink.com 1.10,2014-10-21 16:59:00,
2014-10-21 10:14:00,55.5,52.0,29.96,SSE,158,3.0,12.0,88,0.00,,,0.05,weatherlink.com 1.10,2014-10-21 17:14:00,
2014-10-21 10:29:00,55.9,52.0,29.96,South,173,0.0,10.0,88,0.00,,,0.05,weatherlink.com 1.10,2014-10-21 17:29:00,
2014-10-21 10:44:00,56.0,52.0,29.96,SW,218,0.0,9.0,86,0.00,,,0.05,weatherlink.com 1.10,2014-10-21 17:44:00,
2014-10-21 10:59:00,56.0,52.0,29.97,SSE,161,3.0,11.0,86,0.00,,,0.05,weatherlink.com 1.10,2014-10-21 17:59:00,
2014-10-21 11:14:00,56.4,52.0,29.97,South,186,7.0,10.0,86,0.00,,,0.05,weatherlink.com 1.10,2014-10-21 18:14:00,
2014-10-21 11:29:00,57.0,53.0,29.97,South,180,5.0,10.0,85,0.00,,,0.05,weatherlink.com 1.10,2014-10-21 18:29:00,
2014-10-21 11:44:00,57.1,53.0,29.97,South,186,0.0,11.0,85,0.00,,,0.05,weatherlink.com 1.10,2014-10-21 18:44:00,
2014-10-21 11:59:00,58.0,53.0,29.96,SW,218,4.0,10.0,83,0.00,,,0.05,weatherlink.com 1.10,2014-10-21 18:59:00,
2014-10-21 12:14:00,58.5,53.0,29.96,South,175,4.0,11.0,82,0.00,,,0.05,weatherlink.com 1.10,2014-10-21 19:14:00,
2014-10-21 12:29:00,58.9,53.0,29.96,South,188,0.0,12.0,82,0.00,,,0.05,weatherlink.com 1.10,2014-10-21 19:29:00,
2014-10-21 12:44:00,59.4,53.0,29.96,SSE,163,5.0,10.0,79,0.00,,,0.05,weatherlink.com 1.10,2014-10-21 19:44:00,
2014-10-21 12:59:00,59.7,54.0,29.95,SSE,167,7.0,8.0,80,0.00,,,0.05,weatherlink.com 1.10,2014-10-21 19:59:00,
2014-10-21 13:14:00,59.6,53.0,29.95,South,177,0.0,8.0,80,0.00,,,0.05,weatherlink.com 1.10,2014-10-21 20:14:00,
2014-10-21 13:29:00,59.7,53.0,29.95,South,182,0.0,9.0,78,0.00,,,0.05,weatherlink.com 1.10,2014-10-21 20:29:00,
2014-10-21 13:45:00,59.8,53.0,29.94,SSW,196,0.0,11.0,77,0.00,,,0.05,weatherlink.com 1.10,2014-10-21 20:45:00,
2014-10-21 13:59:00,59.5,53.0,29.94,South,178,5.0,8.0,78,0.00,,,0.05,weatherlink.com 1.10,2014-10-21 20:59:00,
2014-10-21 14:14:00,59.5,52.0,29.93,South,175,5.0,11.0,77,0.00,,,0.05,weatherlink.com 1.10,2014-10-21 21:14:00,
2014-10-21 14:29:00,59.5,53.0,29.93,South,172,0.0,9.0,78,0.00,,,0.05,weatherlink.com 1.10,2014-10-21 21:29:00,
2014-10-21 14:44:00,59.6,52.0,29.93,South,180,2.0,8.0,77,0.00,,,0.05,weatherlink.com 1.10,2014-10-21 21:44:00,
2014-10-21 14:59:00,60.0,52.0,29.92,SSW,202,5.0,11.0,76,0.00,,,0.05,weatherlink.com 1.10,2014-10-21 21:59:00,
2014-10-21 15:14:00,60.5,53.0,29.93,South,175,3.0,11.0,75,0.00,,,0.05,weatherlink.com 1.10,2014-10-21 22:14:00,
2014-10-21 15:29:00,60.4,52.0,29.93,SSW,195,8.0,13.0,75,0.00,,,0.05,weatherlink.com 1.10,2014-10-21 22:29:00,